{"data":{"norad_id":67726,"intl_designator":"2026-026F","name":"STARLINK-36755","alt_names":[],"object_type":"PAYLOAD","status":"ACTIVE","operator":null,"country":"US","launch_date":"2026-02-11","launch_site_code":"AFWTR","launch_vehicle":null,"mission":null,"orbit_class":"UNKNOWN","rcs_meters":null,"size_class":null,"mass_kg":null,"dimensions":null,"purposes":["comms"],"wikipedia_slug":null,"has_3d_model":false,"image_url":null,"decayed_at":null,"tle_current":{"epoch":"2026-09-19T08:43:11.146944Z","epoch_age_seconds":164680,"freshness":"FRESH","line1":"1 67726U 26026F   26262.36332346  .00023555  00000+0  72895-3 0  9995","line2":"2 67726  97.2846 314.1668 0001105  95.3286 264.8083 15.33476972 33807","mean_motion":15.33476972,"eccentricity":0.0001105,"inclination_deg":97.2846,"raan_deg":314.1668,"arg_perigee_deg":95.3286,"mean_anomaly_deg":264.8083,"bstar":0.00072895,"rev_number":3380,"period_min":93.904246773391,"perigee_km":464.6918338051,"apogee_km":466.20426610114,"semimajor_km":6843.5850499531,"source":"CELESTRAK","updated_at":"2026-09-20T09:00:43.657291Z"}}}